ウェスト-ハートレー彗星

123P/West-Hartley (2019)

English version
Home page
Updated on April 4, 2021

---------------------------------------------------------------------

・ プロフィール

・ 写真集

・ 軌道要素

Epoch 2019 Feb. 6.0 TT = JDT 2458520.5                                          
T 2019 Feb. 5.11785 TT                                  Rudenko                 
q   2.1268825            (2000.0)            P               Q                  
n   0.13008664     Peri.  103.01091     -0.83647794     -0.51321494             
a   3.8575738      Node    46.49948     +0.34087831     -0.76181439             
e   0.4486476      Incl.   15.35961     +0.42907649     -0.39528377             
P   7.58                                                                        
From 4354 observations 1995 Dec. 21-2019 Aug. 4, mean residual 0".8.            
     Nongravitational parameters A1 = -0.07, A2 = +0.0011.                      

・ 星図

・ 光度変化

        m1 = 4.5 + 5 logΔ + 24.0 log r

---------------------------------------------------------------------

軌道要素はM.P.E.C. 2021-F20に掲載されたものです。
星図はステラナビゲータ Ver.10 (アストロアーツ) で作成したものです。
光度グラフはComet for Windowsで作成したものです。

---------------------------------------------------------------------

Copyright(C) Seiichi Yoshida (comet@aerith.net). All rights reserved.